TimeMST,TemperatureF,Dew PointF,Humidity,Sea Level PressureIn,VisibilityMPH,Wind Direction,Wind SpeedMPH,Gust SpeedMPH,PrecipitationIn,Events,Conditions,WindDirDegrees,DateUTC
12:26 AM,30.2,30.2,100,29.76,2.5,Calm,Calm,-,N/A,,Mostly Cloudy,0,2013-03-07 07:26:00
12:41 AM,30.2,30.2,100,29.76,3.0,Calm,Calm,-,N/A,,Overcast,0,2013-03-07 07:41:00
12:53 AM,32.0,30.0,92,29.89,4.0,Calm,Calm,-,N/A,,Overcast,0,2013-03-07 07:53:00
1:17 AM,30.2,30.2,100,29.78,3.0,SE,3.5,-,N/A,,Scattered Clouds,140,2013-03-07 08:17:00
1:31 AM,30.2,30.2,100,29.78,1.5,South,4.6,-,N/A,,Partly Cloudy,180,2013-03-07 08:31:00
1:33 AM,30.2,30.2,100,29.78,1.0,South,4.6,-,N/A,,Mist,180,2013-03-07 08:33:00
1:40 AM,30.2,30.2,100,29.79,0.8,South,4.6,-,N/A,,Mist,190,2013-03-07 08:40:00
1:44 AM,30.2,30.2,100,29.79,1.2,South,3.5,-,N/A,,Scattered Clouds,190,2013-03-07 08:44:00
1:46 AM,30.2,30.2,100,29.79,2.0,South,3.5,-,N/A,,Partly Cloudy,180,2013-03-07 08:46:00
1:53 AM,30.9,30.0,96,29.92,4.0,South,3.5,-,N/A,,Partly Cloudy,190,2013-03-07 08:53:00
2:53 AM,30.9,28.9,92,29.93,6.0,SW,4.6,-,N/A,,Partly Cloudy,220,2013-03-07 09:53:00
3:32 AM,26.6,24.8,93,29.82,3.0,Calm,Calm,-,N/A,,Partly Cloudy,0,2013-03-07 10:32:00
3:35 AM,26.6,24.8,93,29.82,1.5,North,4.6,-,N/A,,Partly Cloudy,10,2013-03-07 10:35:00
3:37 AM,26.6,24.8,93,29.82,0.8,North,4.6,-,N/A,,Mist,350,2013-03-07 10:37:00
3:53 AM,28.0,28.0,100,29.95,0.2,Calm,Calm,-,N/A,,Mist,0,2013-03-07 10:53:00
4:53 AM,28.9,28.0,96,30.00,0.2,WNW,3.5,-,N/A,,Mist,290,2013-03-07 11:53:00
5:08 AM,28.4,28.4,100,29.87,0.2,Calm,Calm,-,N/A,,Mist,0,2013-03-07 12:08:00
5:33 AM,28.4,28.4,100,29.89,0.2,Calm,Calm,-,N/A,,Mist,0,2013-03-07 12:33:00
5:51 AM,28.4,26.6,93,29.89,1.0,Calm,Calm,-,N/A,,Mostly Cloudy,0,2013-03-07 12:51:00
5:53 AM,28.0,27.0,96,30.03,1.5,Calm,Calm,-,N/A,,Mostly Cloudy,0,2013-03-07 12:53:00
5:55 AM,28.4,26.6,93,29.90,3.0,Calm,Calm,-,N/A,,Mostly Cloudy,0,2013-03-07 12:55:00
6:03 AM,26.6,24.8,93,29.90,9.0,SSE,3.5,-,N/A,,Scattered Clouds,160,2013-03-07 13:03:00
6:53 AM,28.0,23.0,81,30.05,10.0,WSW,4.6,-,N/A,,Clear,240,2013-03-07 13:53:00
7:53 AM,28.0,25.0,88,30.09,10.0,Calm,Calm,-,N/A,,Clear,0,2013-03-07 14:53:00
8:53 AM,33.1,27.0,78,30.10,10.0,Calm,Calm,-,N/A,,Partly Cloudy,0,2013-03-07 15:53:00
9:53 AM,41.0,21.9,47,30.08,10.0,Calm,Calm,-,N/A,,Clear,0,2013-03-07 16:53:00
10:53 AM,43.0,17.1,35,30.07,10.0,Calm,Calm,-,N/A,,Scattered Clouds,0,2013-03-07 17:53:00
11:53 AM,44.1,14.0,30,30.08,10.0,West,6.9,-,N/A,,Clear,280,2013-03-07 18:53:00
12:53 PM,46.0,17.1,31,30.06,10.0,NW,12.7,18.4,N/A,,Scattered Clouds,310,2013-03-07 19:53:00
1:53 PM,46.0,17.1,31,30.04,10.0,West,10.4,-,N/A,,Partly Cloudy,280,2013-03-07 20:53:00
2:53 PM,46.9,16.0,29,30.03,10.0,WNW,10.4,16.1,N/A,,Partly Cloudy,290,2013-03-07 21:53:00
3:14 PM,46.4,17.6,32,29.94,10.0,NW,13.8,-,N/A,,Scattered Clouds,310,2013-03-07 22:14:00
3:53 PM,46.9,16.0,29,30.04,10.0,NW,15.0,-,N/A,,Clear,310,2013-03-07 22:53:00
4:53 PM,46.0,16.0,30,30.04,10.0,NW,11.5,-,N/A,,Clear,310,2013-03-07 23:53:00
5:53 PM,43.0,18.0,37,30.06,10.0,NNE,4.6,-,N/A,,Partly Cloudy,30,2013-03-08 00:53:00
6:53 PM,37.9,18.0,45,30.10,10.0,Calm,Calm,-,N/A,,Clear,0,2013-03-08 01:53:00
7:53 PM,36.0,19.0,50,30.12,10.0,WSW,5.8,-,N/A,,Clear,240,2013-03-08 02:53:00
8:53 PM,35.1,18.0,50,30.12,10.0,SW,4.6,-,N/A,,Clear,230,2013-03-08 03:53:00
9:53 PM,33.1,18.0,54,30.11,10.0,WSW,5.8,-,N/A,,Clear,240,2013-03-08 04:53:00
10:53 PM,30.0,19.0,64,30.11,10.0,West,8.1,-,N/A,,Clear,260,2013-03-08 05:53:00
11:53 PM,30.0,18.0,61,30.10,10.0,SW,3.5,-,N/A,,Clear,220,2013-03-08 06:53:00